www.pogodaiklimat.ru

Погода и климат >> Архив погоды >> Россия >> Кировская область >> Фаленки


ПОГОДА в Фаленках

  • Прогноз погоды в Фаленках
  • Монитор погоды в Фаленках

АРХИВ ПОГОДЫ в Фаленках

Время (UTC), дата Ветер
(напр.,м/с)
 
Видим.   Явления Облачность Т
(С)
Тd
(С)
f
(%)
Тe
(С)
Тes
(С)
Комфортность P
(гПа)
Po
(гПа)
Тmin
(С)
Tmax
(С)
R
(мм)
R24
(мм)
S
(см)
21 9.01 ЮЗ 2-3
{3}
4000 м слаб. снег 10/0
[Ac As]
-11.3 -12.6 90 -16 -16 1019.4 996.0
00 10.01 ЮЗ 2-3
{3}
4000 м слаб. снег 10/0
[Ac As]
-11.5 -12.8 90 -16 -16 1020.0 996.6
03 10.01 ЮЗ 3-4
{4}
4000 м слаб. снег 10/0
[Ac As]
-10.7 -12.0 90 -17 -17 1019.9 996.6 -11.9 1 41
06 10.01 ЮЗ 2-3
{4}
8000 м слаб. снег 10/0
[Ac As]
-10.9 -12.2 90 -15 -15 1020.2 996.9
09 10.01 З 2-5
{7}
14 км слаб. снег 10/6 600 м
[Sc Ac As Ci fib]
-10.4 -12.4 85 -15 -15 1019.8 996.5
12 10.01 З 3-6
{6}
22 км {снег} 10/10 600 м
[Sc]
-12.1 -14.1 85 -18 -18 1020.6 997.2
15 10.01 З 2-5
{7}
4000 м слаб. снег 10/10 600 м
[Sc]
-13.7 -15.7 85 -18 -18 1021.3 997.6 -10.2 0.7
18 10.01 З 2-5
{5}
4000 м слаб. снег 10/10 600 м
[Sc]
-14.1 -16.1 85 -19 -19 1021.1 997.5
21 10.01 ЮЗ 3-4
{7}
4000 м слаб. снег 10/10 600 м
[Sc]
-13.7 -15.7 85 -20 -20 1021.4 997.7
00 11.01 З 2-3
{4}
4000 м слаб. снег 10/0
[Ac As]
-12.6 -14.6 85 -17 -17 1020.8 997.4
03 11.01 ЮЗ 3-4
{4}
4000 м слаб. снег 10/0
[Ac As]
-11.6 -12.9 90 -18 -18 1019.5 996.1 -14.3 0.0 40
06 11.01 ЮЗ 3-5
{5}
17 км слаб. снег 10/10 600 м
[Sc]
-10.7 -12.0 90 -17 -17 1018.4 995.1
09 11.01 ЮЗ 5-10
{10}
19 км слаб. снег 10/10 600 м
[Sc]
-8.9 -10.0 92 -17 -17 1017.0 993.9
12 11.01 ЮЗ 4-6
{8}
12 км слаб. снег 10/10 600 м
[Sc]
-9.1 -10.6 89 -16 -16 1015.4 992.4
15 11.01 Ю 6-8
{8}
4000 м слаб. снег {метель} 10/10 600 м
[Sc]
-9.5 -11.1 88 -18 -18 1014.1 991.0 -8.6 0.6
18 11.01 ЮЗ 6-9
{10}
4000 м слаб. снег {метель} 10/6 600 м
[Sc Ac As]
-9.3 -10.9 88 -18 -18 1012.3 989.3
21 11.01 ЮЗ 6-8
{9}
4000 м слаб. снег {метель} 10/0
[Ac As]
-9.7 -11.4 87 -18 -18 1010.5 987.5
00 12.01 Ю 6-9
{12}
4000 м слаб. снег {метель} 10/0
[Ac As]
-11.1 -13.1 85 -20 -20 1009.1 986.1
03 12.01 Ю 6-9
{10}
4000 м слаб. снег {метель} 10/0
[Ac As]
-10.2 -12.2 85 -19 -19 1006.2 983.2 -11.3 0.6 41
06 12.01 Ю 7-9
{10}
11 км слаб. снег {метель} 10/0
[Ac As]
-12.8 -14.8 85 -22 -22 1005.1 982.0 -12.8
09 12.01 Ю 5-6
{9}
9000 м слаб. снег 10/0
[Ac As]
-11.4 -14.2 80 -19 -19 1003.0 979.9
12 12.01 Ю 4-6
{8}
9000 м слаб. снег 10/0
[Ac As]
-11.2 -14.0 80 -18 -18 1000.6 977.6
15 12.01 Ю 3-5
{6}
10 км {снег} 10/0
[As op]
-12.8 -14.1 90 -19 -19 999.6 976.6 -10.0 0.3
18 12.01 Ю 4-5
{6}
4000 м слаб. снег 10/0
[Ac As]
-11.1 -13.1 85 -18 -18 997.7 974.9
21 12.01 Ю 3-4
{6}
4000 м слаб. снег 10/0
[Ac As]
-10.9 -12.9 85 -17 -17 995.9 973.1
00 13.01 Ю 2-3
{4}
4000 м слаб. снег 10/0
[Ac As]
-10.4 -11.7 90 -15 -15 994.4 971.7
03 13.01 ЮЗ 4-6
{6}
10 км {снег} 4/0
[Ac trans Ci fib]
-13.5 -14.8 90 -21 -21 993.9 970.9 -14.0 0.2 41
06 13.01 Ю 4-6
{7}
20 км {снег} 10/0
[Ac trans Ci fib]
-11.9 -13.2 90 -19 -19 993.9 971.0
09 13.01 ЮЗ 4-6
{7}
11 км слаб. ливневой снег 10/8 600 м
[Cb cap Ac As]
-10.8 -12.8 85 -18 -18 994.4 971.7
12 13.01 ЮЗ 4-6
{9}
12 км в посл. час ливневой снег 10/6 600 м
[Cb cap Ac As]
-11.9 -14.6 80 -19 -19 996.0 973.0
15 13.01 ЮЗ 5-7
{9}
4000 м слаб. ливневой снег 10/10 600 м
[Cb cap]
-11.6 -13.6 85 -20 -20 996.9 973.9 -10.4 0.6
18 13.01 ЮЗ 3-4
{8}
4000 м слаб. снег 10/0
[As op]
-11.9 -13.9 85 -18 -18 997.9 974.9
21 13.01 ЮЗ 5-7
{8}
4000 м слаб. снег 10/0
[Ac As]
-11.8 -13.8 85 -20 -20 999.3 976.3
00 14.01 ЮЗ 6-8
{8}
4000 м слаб. снег 10/0
[Ac As]
-11.4 -13.4 85 -20 -20 999.5 976.5
03 14.01 ЮЗ 5-7
{9}
4000 м слаб. снег 10/0
[Ac As]
-10.9 -12.2 90 -19 -19 1000.1 977.3 -12.4 0.5 42
06 14.01 ЮЗ 6-7
{8}
14 км слаб. снег 10/6 600 м
[Sc Ac As]
-10.3 -12.3 85 -19 -19 1001.5 978.6
09 14.01 ЮЗ 5-8
{9}
24 км {снег} 10/5 600 м
[Sc Ac As]
-8.5 -10.8 83 -16 -16 1001.8 979.1
12 14.01 ЮЗ 5-7
{9}
22 км {снег} 10/6 600 м
[Cb cap Ac As]
-7.4 -10.4 79 -15 -15 1002.6 979.9
15 14.01 ЮЗ 5-8
{8}
10 км 10/9 600 м
[Cb cap Ac trans]
-7.8 -10.0 84 -15 -15 1003.2 980.5 -7.2 0.0
18 14.01 Ю 5-7
{8}
10 км 10/10 600 м
[Cb cap]
-8.5 -10.4 86 -16 -16 1004.2 981.5
21 14.01 ЮЗ 5-7
{9}
10 км 10/10 600 м
[Cb cap]
-8.9 -10.9 85 -17 -17 1004.6 981.9
00 15.01 ЮЗ 6-7
{8}
4000 м слаб. снег 10/10 600 м
[Sc]
-9.2 -10.8 88 -18 -18 1004.9 982.2
03 15.01 ЮЗ 5-8
{9}
4000 м слаб. снег 10/10 600 м
[Sc]
-9.1 -11.1 85 -17 -17 1004.9 982.2 -9.4 0.6 41
06 15.01 ЮЗ 6-9
{9}
14 км позёмок {снег} 10/10 1000 м
[Sc]
-8.6 -10.5 86 -17 -17 1005.3 982.5
09 15.01 Ю 5-8
{10}
15 км слаб. ливневой снег {метель} 10/10 600 м
[Cb cap]
-7.9 -10.1 84 -15 -15 1005.7 982.8
12 15.01 ЮЗ 6-10
{10}
17 км {метель} 10/4 600 м
[Cb cap Ac As]
-7.4 -9.5 85 -16 -16 1005.5 982.6
15 15.01 Ю 5-8
{10}
10 км 10/10 600 м
[Cb cap]
-7.6 -9.4 87 -15 -15 1005.7 982.8 -7.1 0.0
18 15.01 Ю 3-4
{8}
10 км 10/10 600 м
[Cb cap]
-7.7 -9.5 87 -13 -13 1005.1 982.4
21 15.01 Ю 2-3
{5}
4000 м слаб. ливневой снег 10/10 600 м
[Cb cap]
-6.8 -8.0 91 -11 -11 1004.4 981.8
00 16.01 Ю 4-6
{6}
4000 м слаб. ливневой снег 10/10 600 м
[Cb cap]
-4.6 -5.9 91 -11 -11 1004.6 982.2
03 16.01 Ю 4-6
{9}
10 км {ливн. осадки} 10/10 600 м
[Cb cap]
-2.8 -3.5 95 -9 -9 1005.1 982.8 -8.2 2 42
06 16.01 Ю 4-6
{8}
5000 м дымка {ливн. осадки} 10/10 600 м
[Cb cap]
-2.3 -2.6 98 -8 -8 1005.7 983.4
09 16.01 Ю 6-9
{9}
10 км слаб. снег 10/10 600 м
[Sc]
-1.9 -3.0 92 -9 -9 1004.5 982.3
12 16.01 Ю 6-10
{11}
6000 м слаб. снег {метель} 10/10 600 м
[Sc]
-2.6 -3.6 93 -10 -10 1002.3 980.1
15 16.01 Ю 8-12
{13}
2000 м снег {метель} 10/0 300 м
[As op]
-2.2 -3.4 91 -10 -10 999.1 977.0 -1.4 2
18 16.01 Ю 8-12
{14}
2000 м слаб. снег {метель} 10/0 300 м
[Ac As]
-3.2 -3.9 95 -12 -12 996.9 974.8

 

Местоположение метеостанции Фаленки (Кировская область, Россия): широта 58.35 долгота 51.57 высота над уровнем моря 178 м.

В архиве по умолчанию представлена погода в Фаленках за последнюю неделю. Архивные данные за месяц целиком и за предыдущие месяцы, начиная с января 2011 года, Вы можете получить, выбрав интересующий диапазон дат из раскрывающегося списка и нажав кнопку "Ввод!".


*Определитесь, кто Вы:
робот инопланетянин человек

Внимание! Время в таблицах - всемирное. Для получения местного времени необходимо прибавить поправку, которая равна 3 ч.

Смотрите также архив погоды в соседних городах и на ближайших метеорологических станциях:

Погода в Глазове (Удмуртия, Россия) (64 км)
Погода в Уни (Кировская область, Россия) (67 км)
Погода в Белой Холунице (Кировская область, Россия) (68 км)
Погода в Кумене (Кировская область, Россия) (101 км)
Погода в Нагорске (Кировская область, Россия) (116 км)
Погода в Кирове (Кировская область, Россия) (116 км)
Погода в Кирсе (Кировская область, Россия) (118 км)
Погода в Селтах (Удмуртия, Россия) (122 км)
Погода в Игре (Удмуртия, Россия) (127 км)
Погода в Нолинске (Кировская область, Россия) (131 км)

Пояснения к столбцам:

Ветер - указаны скорость ветра в м/с - средняя за 10 мин, порывы в срок и между сроками (в фигурных скобках) и направление, откуда дует ветер: С - северный, СВ - северо-восточный, В - восточный, ЮВ - юго-восточный, Ю - южный, ЮЗ - юго-западный, З - западный, СЗ - северо-западный.
Видимость - горизонтальная дальность видимости в метрах или километрах. При видимости от 1 до 10 км при отсутствии осадков обычно наблюдается дымка, при ухудшении видимости до 1 км и менее - туман. В сухую погоду видимость может ухудшаться дымом, пылью или мглою.
Явления - указаны атмосферные явления, наблюдавшиеся в срок или в последний час перед сроком; фигурными скобками обозначены явления, наблюдавшиеся между сроками (за 1-3 часа до срока); квадратными скобками обозначены град или гололедные отложения с указанием их диаметра в мм.
Облачность - указаны через наклонную черту общая и нижняя облачность в баллах и высота нижней границы облаков в метрах; квадратными скобками обозначены формы облаков: Ci - перистые, Cs - перисто-слоистые, Cc - перисто-кучевые, Ac - высококучевые, As - высокослоистые, Sc - слоисто-кучевые, Ns - слоисто-дождевые, Cu - кучевые, Cb - кучево-дождевые. Подробнее классификацию облаков см. в Атласе облаков (PDF).
T - Температура воздуха - температура, измеренная на высоте 2 м над землей.
Td - Температура точки росы - температура, при понижении до которой содержащийся в воздухе водяной пар достигнет насыщения.
f - Относительная влажность воздуха - влажноcть воздуха, измеренная на высоте 2 м над землей.
Te - Эффективная температура - температура, которую ощущает одетый по сезону человек в тени. Характеристика душности погоды. При расчете учитывается влияние влажности воздуха и скорости ветра на теплоощущения человека.
Tes - Эффективная температура на солнце - температура, которую ощущает человек, с поправкой на солнечный нагрев. Характеристика знойности погоды. Зависит от высоты солнца над горизонтом, облачности и скорости ветра. Ночью, в пасмурную погоду, а также при ветре 12 м/с и более поправка равна нулю.
P - Атмосферное давление - приведенное к уровню моря атмосферное давление.
Po - Атмосферное давление - измеренное на уровне метеостанции атмосферное давление.
Tmin - Минимальная температура - минимум температуры воздуха на высоте 2 м над землей.
Tmax - Максимальная температура - максимум температуры воздуха на высоте 2 м над землей.
R - Количество осадков - Количество выпавших осадков за период времени, мм. При наведении курсора мыши на число - период времени, за который выпало указанное количество осадков.
R24 - Количество осадков - Количество выпавших осадков за 24 часа, мм.
S - Снежный покров - Высота снежного покрова, см. При наведении курсора мыши на число - состояние снежного покрова и степень покрытия местности в баллах.